Cape Cod CGAS, MA

7:49 AM EST on January 24, 2018 (GMT -0500)
Cape Cod Coast Guard Air Station

Weather History for KFMH - March, 2014

Change the Weather History Date:

Wednesday, March 5, 2014

  Actual Average Record
Temperature  
Mean Temperature 28 °F -  
Max Temperature 33 °F 40 °F 57 °F (2008)
Min Temperature 23 °F 23 °F 8 °F (2017)
Degree Days  
Heating Degree Days 37    
Moisture  
Dew Point 17 °F    
Average Humidity 66    
Maximum Humidity 93    
Minimum Humidity 36    
Precipitation  
Precipitation 0.00 in - - ()
Sea Level Pressure  
Sea Level Pressure 30.28 in    
Wind  
Wind Speed 5 mph (North)    
Max Wind Speed 23 mph    
Max Gust Speed 24 mph    
Visibility 9 miles    
Events Rain , Snow    
Averages and records for this station are not official NWS values.
T = Trace of Precipitation, MM = Missing Value Source: NWS Daily Summary

Daily Weather History Graph

Daily Weather History Graph

Search for Another Location

Airport or City:

Trip Planner

Search our weather history database for the weather conditions in past years. The results will help you decide how hot, cold, wet, or windy it might be!

Date:

Astronomy

Mar. 05, 2014 Rise Set
Actual Time 6:10 AM EST 5:37 PM EST
Civil Twilight 5:42 AM EST 6:05 PM EST
Nautical Twilight 5:10 AM EST 6:37 PM EST
Astronomical Twilight 4:38 AM EST 7:09 PM EST
Moon 8:30 AM EST (3/5) 10:47 PM EST (3/5)
Length of Visible Light 12h 22m
Length of Day
11h 26m
Waxing Crescent, 23% of the Moon is Illuminated
Mar 5
Waxing Crescent
Mar 8
First Quarter
Mar 16
Full
Mar 23
Last Quarter
Mar 30
New

Hourly Weather History & Observations

Time (EST) Temp. Windchill Dew Point Humidity Pressure Visibility Wind Dir Wind Speed Gust Speed Precip Events Conditions
12:15 AM 24.8 °F - 12.2 °F 59% 30.25 in 10.0 mi Calm Calm - N/A   Overcast
12:35 AM 24.8 °F - 12.2 °F 59% 30.25 in 10.0 mi Calm Calm - N/A   Overcast
12:55 AM 24.8 °F - 10.4 °F 54% 30.25 in 10.0 mi Calm Calm - N/A   Overcast
1:15 AM 23.0 °F - 14.0 °F 68% 30.25 in 10.0 mi Calm Calm - N/A   Overcast
1:35 AM 24.8 °F - 14.0 °F 64% 30.24 in 10.0 mi Calm Calm - N/A   Overcast
1:55 AM 24.8 °F - 14.0 °F 64% 30.23 in 10.0 mi Calm Calm - N/A   Overcast
2:15 AM 24.8 °F - 14.0 °F 64% 30.24 in 10.0 mi Calm Calm - N/A   Overcast
2:35 AM 24.8 °F - 14.0 °F 64% 30.24 in 10.0 mi Calm Calm - N/A   Overcast
2:55 AM 23.0 °F 18.4 °F 14.0 °F 68% 30.23 in 10.0 mi NW 3.5 mph - N/A   Overcast
3:15 AM 23.0 °F - 14.0 °F 68% 30.23 in 10.0 mi Calm Calm - N/A   Overcast
3:35 AM 23.0 °F - 14.0 °F 68% 30.23 in 10.0 mi Calm Calm - N/A   Overcast
3:55 AM 23.0 °F - 14.0 °F 68% 30.22 in 10.0 mi Calm Calm - N/A   Overcast
4:15 AM 23.0 °F - 12.2 °F 63% 30.22 in 10.0 mi Calm Calm - N/A   Overcast
4:35 AM 23.0 °F - 12.2 °F 63% 30.23 in 10.0 mi Calm Calm - N/A   Overcast
4:55 AM 23.0 °F - 14.0 °F 68% 30.23 in 10.0 mi Calm Calm - N/A   Overcast
5:15 AM 23.0 °F - 12.2 °F 63% 30.24 in 10.0 mi Calm Calm - N/A   Overcast
5:35 AM 23.0 °F - 12.2 °F 63% 30.24 in 10.0 mi Calm Calm - N/A   Overcast
5:55 AM 24.8 °F 19.1 °F 12.2 °F 59% 30.24 in 10.0 mi NNW 4.6 mph - N/A   Overcast
6:15 AM 24.8 °F 19.1 °F 10.4 °F 54% 30.24 in 10.0 mi NNW 4.6 mph - N/A   Overcast
6:35 AM 24.8 °F 20.5 °F 10.4 °F 54% 30.25 in 10.0 mi NNW 3.5 mph - N/A   Overcast
6:55 AM 24.8 °F 19.1 °F 12.2 °F 59% 30.25 in 10.0 mi NNW 4.6 mph - N/A   Overcast
7:15 AM 24.8 °F 19.1 °F 12.2 °F 59% 30.25 in 10.0 mi North 4.6 mph - N/A   Overcast
7:35 AM 26.6 °F 21.2 °F 12.2 °F 55% 30.25 in 10.0 mi NNW 4.6 mph - N/A   Overcast
7:55 AM 26.6 °F 21.2 °F 14.0 °F 59% 30.26 in 10.0 mi North 4.6 mph - N/A   Overcast
8:15 AM 28.4 °F 22.2 °F 15.8 °F 59% 30.26 in 10.0 mi NNE 5.8 mph - N/A   Overcast
8:35 AM 30.2 °F 21.9 °F 17.6 °F 60% 30.26 in 10.0 mi NNE 9.2 mph - N/A   Overcast
8:55 AM 30.2 °F 21.9 °F 17.6 °F 60% 30.26 in 10.0 mi NE 9.2 mph 16.1 mph N/A   Overcast
9:15 AM 32.0 °F 24.2 °F 17.6 °F 55% 30.26 in 10.0 mi NE 9.2 mph - N/A   Overcast
9:35 AM 32.0 °F 23.6 °F 17.6 °F 55% 30.26 in 10.0 mi ENE 10.4 mph - N/A   Overcast
9:55 AM 32.0 °F 23.6 °F 17.6 °F 55% 30.26 in 10.0 mi NE 10.4 mph - N/A   Overcast
10:15 AM 32.0 °F 24.8 °F 17.6 °F 55% 30.26 in 10.0 mi North 8.1 mph - N/A   Overcast
10:35 AM 32.0 °F 24.2 °F 19.4 °F 60% 30.26 in 10.0 mi North 9.2 mph - N/A   Overcast
10:55 AM 32.0 °F 24.8 °F 19.4 °F 60% 30.25 in 10.0 mi NNE 8.1 mph - N/A   Mostly Cloudy
11:15 AM 32.0 °F 25.6 °F 19.4 °F 60% 30.24 in 10.0 mi Variable 6.9 mph - N/A   Mostly Cloudy
11:35 AM 32.0 °F 23.6 °F 14.0 °F 48% 30.24 in 10.0 mi NE 10.4 mph - N/A   Overcast
11:55 AM 32.0 °F 23.0 °F 15.8 °F 51% 30.25 in 10.0 mi NNW 11.5 mph - N/A   Overcast
12:15 PM 32.0 °F 23.6 °F 19.4 °F 60% 30.25 in 10.0 mi NNW 10.4 mph - N/A   Overcast
12:35 PM 32.0 °F 22.5 °F 21.2 °F 64% 30.24 in 10.0 mi North 12.7 mph - N/A   Overcast
12:55 PM 30.2 °F 21.3 °F 23.0 °F 75% 30.23 in 10.0 mi North 10.4 mph - N/A   Overcast
1:15 PM 30.2 °F 21.3 °F 19.4 °F 64% 30.23 in 10.0 mi North 10.4 mph - N/A   Overcast
1:35 PM 32.0 °F 24.2 °F 17.6 °F 55% 30.23 in 10.0 mi North 9.2 mph - N/A   Overcast
1:55 PM 32.0 °F 24.2 °F 17.6 °F 55% 30.22 in 10.0 mi NNE 9.2 mph 15.0 mph N/A   Overcast
2:15 PM 32.0 °F 24.2 °F 21.2 °F 64% 30.22 in 10.0 mi North 9.2 mph 18.4 mph N/A   Overcast
2:35 PM 30.2 °F 21.9 °F 23.0 °F 75% 30.23 in 10.0 mi North 9.2 mph 15.0 mph N/A   Overcast
2:55 PM 30.2 °F 21.9 °F 24.8 °F 80% 30.24 in 9.0 mi NNE 9.2 mph 16.1 mph N/A   Overcast
3:15 PM 30.2 °F 21.9 °F 23.0 °F 75% 30.25 in 10.0 mi NNE 9.2 mph - N/A   Overcast
3:55 PM 30.2 °F 24.3 °F 24.8 °F 80% 30.25 in 10.0 mi NNE 5.8 mph 15.0 mph N/A   Overcast
4:15 PM 28.4 °F 19.1 °F 24.8 °F 86% 30.26 in 6.0 mi NNE 10.4 mph 20.7 mph N/A Rain Light Freezing Rain
4:35 PM 28.4 °F 17.5 °F 24.8 °F 86% 30.27 in 2.5 mi NNE 13.8 mph 23.0 mph N/A Snow Light Snow
4:55 PM 28.4 °F 18.5 °F 24.8 °F 86% 30.29 in 2.0 mi North 11.5 mph 20.7 mph N/A Snow Light Snow
5:15 PM 26.6 °F 15.7 °F 24.8 °F 93% 30.29 in 1.8 mi NNE 12.7 mph 18.4 mph N/A Snow Light Snow
5:35 PM 26.6 °F 15.2 °F 23.0 °F 86% 30.30 in 1.5 mi NNE 13.8 mph 21.9 mph N/A Snow Light Snow
5:55 PM 26.6 °F 16.8 °F 23.0 °F 86% 30.31 in 2.0 mi North 10.4 mph 21.9 mph N/A Snow Light Snow
6:15 PM 26.6 °F 15.7 °F 23.0 °F 86% 30.32 in 5.0 mi NNE 12.7 mph 19.6 mph N/A Snow Light Snow
6:35 PM 26.6 °F 16.2 °F 21.2 °F 80% 30.33 in 8.0 mi NNE 11.5 mph - N/A   Overcast
6:55 PM 26.6 °F 15.7 °F 21.2 °F 80% 30.33 in 3.0 mi NNE 12.7 mph - N/A Snow Light Snow
7:15 PM 26.6 °F 16.8 °F 21.2 °F 80% 30.33 in 4.0 mi NNE 10.4 mph 19.6 mph N/A Snow Light Snow
7:35 PM 26.6 °F 16.2 °F 21.2 °F 80% 30.34 in 7.0 mi NNE 11.5 mph 20.7 mph N/A Snow Light Snow
7:55 PM 26.6 °F 15.2 °F 19.4 °F 74% 30.35 in 8.0 mi NNE 13.8 mph 20.7 mph N/A Rain Light Freezing Rain
8:15 PM 26.6 °F 16.2 °F 19.4 °F 74% 30.36 in 10.0 mi North 11.5 mph 17.3 mph N/A   Overcast
8:35 PM 26.6 °F 14.3 °F 17.6 °F 69% 30.37 in 10.0 mi NNE 16.1 mph 24.2 mph N/A   Overcast
8:55 PM 24.8 °F 15.3 °F 17.6 °F 74% 30.38 in 10.0 mi North 9.2 mph 17.3 mph N/A   Overcast
9:15 PM 24.8 °F 12.9 °F 15.8 °F 69% 30.39 in 10.0 mi North 13.8 mph 23.0 mph N/A   Overcast
9:35 PM 24.8 °F 13.4 °F 14.0 °F 64% 30.40 in 10.0 mi North 12.7 mph 20.7 mph N/A   Overcast
9:55 PM 24.8 °F 15.3 °F 14.0 °F 64% 30.40 in 10.0 mi North 9.2 mph 21.9 mph N/A   Overcast
10:15 PM 24.8 °F 14.6 °F 14.0 °F 64% 30.40 in 10.0 mi North 10.4 mph 18.4 mph N/A   Overcast
10:35 PM 24.8 °F 13.4 °F 14.0 °F 64% 30.40 in 10.0 mi NNE 12.7 mph 23.0 mph N/A   Overcast
10:55 PM 24.8 °F 13.4 °F 14.0 °F 64% 30.41 in 9.0 mi North 12.7 mph 19.6 mph N/A   Overcast
11:15 PM 24.8 °F 13.4 °F 12.2 °F 59% 30.41 in 10.0 mi NNE 12.7 mph - N/A   Overcast
11:35 PM 24.8 °F 13.4 °F 14.0 °F 64% 30.41 in 6.0 mi North 12.7 mph 19.6 mph N/A Snow Light Snow
11:55 PM 23.0 °F 13.9 °F 14.0 °F 68% 30.41 in 10.0 mi North 8.1 mph - N/A   Overcast